RH
33 33 32 31 30 31 35 38 38 35 32 34 36 37 37 33 30 28 28 29 30 31 30 29 28 24 23 23 22 23 24 25 25 25 26 25 25 23 22 20 19 20 21 19 22 26 26 28 31 31 33 33 32 32 31 31 32 33 32 29 28 24 18 11 6 4 4 3 3 4 4 3 3 3 3 3 3 3 3 2 3 2 3 2 2 3
34 33 32 31 32 34 37 37 37 35 35 37 38 37 34 31 30 30 30 30 30 30 28 28 27 24 22 22 23 24 26 26 26 26 26 25 25 24 22 21 20 21 21 20 23 26 27 30 32 33 36 36 34 34 33 33 33 33 32 30 28 25 20 13 7 5 4 3 3 3 4 3 3 3 3 3 3 3 3 3 3 2 3 3 2 2
34 33 31 31 34 37 37 38 37 36 37 38 37 34 32 31 32 33 33 31 29 28 26 25 26 24 23 24 26 26 27 27 27 26 26 25 25 24 23 21 20 21 21 21 25 27 29 32 34 37 40 38 35 35 35 34 33 34 32 30 28 25 22 16 9 6 4 4 3 3 4 4 3 3 3 3 3 3 3 3 3 3 3 3 3 3
34 32 31 32 37 40 41 41 38 36 36 36 35 34 34 34 34 34 33 31 28 26 24 23 25 28 26 26 28 27 27 27 27 26 25 24 24 23 23 21 20 21 21 22 25 28 31 35 37 41 43 40 35 36 37 35 34 34 33 31 29 26 23 18 11 6 5 4 3 3 4 4 3 3 3 3 3 3 3 3 3 3 3 2 3 3
32 31 32 36 40 43 43 41 39 38 37 36 36 36 36 38 37 35 32 30 28 26 24 23 26 31 30 28 29 27 27 27 26 26 24 23 23 22 22 21 20 21 21 22 25 29 33 38 41 44 44 39 37 37 38 38 36 36 35 31 29 26 23 19 13 7 5 4 4 3 3 4 4 3 3 3 3 3 3 3 3 2 3 3 2 3
33 33 36 40 43 43 42 41 41 41 40 39 38 39 41 41 38 34 31 30 29 26 25 24 25 31 32 29 28 28 27 27 25 24 22 21 21 21 21 20 20 21 21 22 26 30 37 42 44 46 44 39 38 39 41 41 39 38 36 32 29 26 23 20 14 8 6 5 5 4 3 3 4 4 4 3 3 3 3 3 3 2 3 3 2 2
34 35 38 41 41 40 40 40 40 40 42 42 42 43 44 41 37 35 32 31 30 27 27 26 26 31 33 30 28 28 27 25 24 22 21 20 20 20 21 20 21 22 23 24 27 33 41 46 47 48 44 40 40 41 43 44 43 41 38 34 29 26 24 21 16 11 7 6 5 5 4 3 3 3 4 4 3 3 3 3 3 3 3 2 3 2
35 37 40 40 39 37 36 38 40 42 44 46 47 47 45 41 37 35 34 32 30 29 29 29 29 32 35 31 28 28 28 28 27 25 23 21 20 21 20 20 22 23 24 26 31 37 46 49 50 49 44 40 42 44 46 47 45 43 40 35 30 27 24 22 19 15 10 7 6 5 4 4 4 3 3 3 4 4 3 3 3 3 3 3 3 2
38 40 40 38 35 34 36 38 42 43 44 47 49 47 43 40 38 36 35 33 32 32 31 32 32 32 34 31 29 33 37 38 33 28 26 23 21 22 21 21 23 24 26 30 36 43 49 51 51 48 43 42 44 47 49 49 47 45 42 37 31 27 25 23 21 18 12 8 7 6 5 4 4 4 4 3 3 4 4 4 3 3 3 3 3 2
38 37 36 35 35 37 38 40 42 43 44 46 46 45 42 39 38 37 34 33 35 35 34 34 31 32 35 31 34 45 50 43 34 31 28 24 23 22 21 23 24 24 29 35 42 49 52 52 51 48 43 44 47 50 51 50 48 46 43 39 33 29 27 24 23 20 14 10 8 7 6 5 4 4 4 4 3 4 4 4 4 3 3 3 3 3
35 35 36 38 38 39 41 43 44 44 43 43 43 44 42 39 38 36 33 34 37 37 34 32 29 33 34 32 46 64 64 51 41 37 32 26 24 22 22 24 24 27 34 40 48 55 55 52 50 46 44 47 50 53 52 50 49 48 45 42 37 32 29 26 24 21 17 12 9 8 7 6 5 4 4 4 4 4 3 4 4 4 4 3 3 3
35 38 39 39 39 42 45 47 46 43 42 41 42 41 39 38 37 34 33 33 35 35 33 29 31 34 34 41 63 76 72 64 55 48 41 30 24 23 24 25 26 31 39 47 56 59 57 53 48 44 45 50 54 54 52 49 50 50 48 45 41 36 32 29 26 22 18 14 10 9 8 7 6 5 5 4 4 4 4 4 4 4 4 4 3 3
38 37 37 40 44 48 49 47 45 43 42 41 40 40 38 37 34 32 31 30 32 34 33 31 33 34 39 58 78 80 75 73 68 62 51 34 25 25 26 27 30 36 46 57 62 61 58 53 46 44 47 52 55 53 50 50 51 51 51 49 45 40 35 32 29 24 20 15 11 10 9 8 8 6 5 5 5 5 4 4 4 4 4 4 4 3
38 38 41 46 49 49 47 45 43 41 40 39 39 38 35 33 30 29 29 28 32 35 36 37 34 35 52 76 86 82 78 76 72 67 54 36 27 27 28 30 34 43 55 64 66 62 58 51 44 44 49 52 54 52 50 51 53 53 53 52 48 44 39 36 32 27 22 17 13 10 10 9 8 7 6 5 5 5 5 5 4 4 4 4 4 4
38 42 46 48 47 46 44 42 39 38 40 39 37 35 32 30 29 28 28 28 32 37 40 38 33 43 70 86 85 82 80 74 68 63 51 36 29 27 29 33 42 53 63 67 68 64 56 48 44 46 49 52 52 52 52 53 54 55 54 53 51 48 44 39 35 30 25 20 15 12 11 10 9 9 7 5 5 5 5 5 4 4 4 4 4 4
43 47 49 48 45 42 40 39 39 39 40 37 34 32 30 30 29 29 31 31 34 38 39 37 40 61 86 88 82 82 77 67 61 54 44 33 28 29 32 41 53 64 68 69 69 63 53 46 46 48 49 51 52 54 55 55 55 56 55 53 53 52 50 45 40 35 28 22 18 14 12 11 11 10 9 7 5 5 5 5 4 5 4 4 4 4
51 51 48 44 40 38 39 40 40 39 37 34 31 30 29 30 31 32 34 35 37 37 38 46 58 75 90 85 79 76 64 55 52 44 37 31 27 32 41 54 66 70 73 73 67 58 49 46 48 51 52 52 53 55 57 57 56 55 55 55 55 55 54 52 47 42 33 25 20 16 13 12 12 11 10 9 6 5 5 5 5 5 4 4 4 4
51 47 42 39 39 39 40 40 39 36 33 31 30 30 30 32 33 36 38 38 42 44 53 72 77 73 78 77 66 58 47 44 45 36 30 28 31 43 57 68 76 79 80 72 61 51 47 49 53 55 57 56 55 55 56 56 56 54 55 56 57 58 58 57 53 47 40 30 23 18 14 13 13 13 12 11 9 6 5 5 5 5 5 4 4 4
45 42 40 39 39 40 39 38 36 33 31 30 32 32 33 36 40 44 46 48 56 62 69 88 88 68 65 60 46 39 37 40 40 30 27 33 45 62 73 80 88 88 79 64 53 48 48 53 58 60 60 59 57 55 53 54 54 54 55 55 58 61 62 62 58 52 45 35 26 20 15 14 13 14 13 12 11 8 6 5 5 5 5 5 4 4
41 39 40 39 39 38 36 35 34 32 31 32 33 36 40 47 51 54 59 65 71 70 67 79 81 58 44 38 32 35 36 34 32 28 36 52 65 77 84 92 95 83 67 55 49 49 52 57 61 62 62 61 60 57 53 52 52 53 55 56 59 62 64 66 64 58 49 40 30 22 17 14 14 14 14 14 13 11 7 5 5 5 5 5 5 4
40 40 41 40 37 36 33 32 33 32 33 34 38 46 54 61 65 68 75 76 74 68 60 63 62 42 30 33 36 37 31 27 34 45 58 72 81 87 91 92 83 66 55 51 50 53 56 59 62 64 64 62 60 57 54 52 51 52 54 56 60 63 65 68 67 61 53 43 34 25 18 15 14 14 15 14 14 13 10 7 5 5 5 5 5 4
40 39 39 38 36 34 32 32 33 33 36 42 52 64 71 75 75 72 72 72 69 62 49 44 44 36 33 37 34 31 32 39 54 68 78 86 90 90 85 76 64 55 53 52 53 57 59 60 62 64 65 63 59 56 54 52 51 52 53 56 60 64 66 69 69 65 56 46 37 28 20 16 14 14 15 15 15 15 13 10 6 5 5 5 5 5
39 37 37 36 35 34 33 33 34 38 47 60 72 80 82 78 70 61 60 63 64 51 33 34 46 42 32 30 31 38 50 59 72 84 91 92 88 79 69 60 54 53 55 56 58 61 62 63 63 63 63 61 57 55 53 53 53 53 54 56 60 63 67 70 71 69 60 49 41 32 23 17 14 14 15 15 16 15 15 13 9 6 5 5 5 5
37 35 34 34 34 35 35 36 43 53 67 78 81 80 75 69 62 54 48 49 51 43 31 33 44 39 30 36 47 58 68 73 81 93 93 82 72 64 57 53 52 53 58 63 65 66 66 65 64 62 61 59 57 56 54 53 54 55 55 57 60 63 67 70 72 73 67 54 43 34 26 19 15 14 15 15 16 16 16 15 12 8 6 5 5 5
35 33 33 33 33 37 41 49 61 70 75 75 70 66 66 63 56 43 31 35 45 42 32 28 34 40 47 56 62 70 79 83 83 84 78 66 59 57 54 53 52 55 61 68 70 69 68 66 65 63 61 59 58 57 56 55 55 56 57 58 60 63 66 69 72 73 70 58 45 34 27 21 17 15 15 15 16 16 16 16 15 11 7 5 5 5
35 34 34 34 38 48 59 66 70 70 67 64 61 61 60 56 46 31 26 35 41 35 31 35 45 56 67 74 78 86 92 86 75 69 64 59 57 58 58 58 58 59 63 68 70 69 68 67 67 65 62 60 60 59 58 57 56 57 58 59 61 63 66 69 70 71 69 60 46 35 27 23 19 16 15 15 16 17 16 16 16 14 10 6 5 5
35 35 36 41 52 65 76 77 69 63 62 59 56 52 48 44 38 28 25 32 36 36 45 55 58 63 76 89 93 96 97 85 69 62 61 61 63 65 67 68 66 64 64 65 67 67 68 68 68 66 64 62 62 61 60 59 58 59 60 60 62 63 65 68 69 69 68 61 49 36 28 24 21 17 16 16 15 16 17 17 16 16 13 9 6 5
35 39 45 59 72 77 79 76 67 60 56 49 43 40 39 37 34 28 29 40 50 54 61 71 74 76 85 98 100 95 94 83 66 61 65 69 72 73 76 76 72 68 63 62 65 67 69 70 69 67 66 63 63 63 62 60 60 60 61 62 63 64 65 67 68 68 67 62 52 39 28 25 22 19 17 16 15 16 17 17 17 16 16 13 8 6
43 52 63 80 89 80 69 67 62 51 43 36 31 33 36 38 40 41 43 55 69 73 75 82 92 93 89 94 100 95 88 79 68 65 71 76 76 78 80 79 73 67 61 60 65 70 72 73 71 68 67 66 65 64 63 63 61 61 62 62 62 63 64 65 65 65 65 61 52 39 28 24 23 20 17 17 16 15 16 17 17 17 17 15 12 7
59 69 73 81 88 77 62 60 53 37 31 33 32 37 45 54 66 65 53 58 75 84 85 84 87 94 91 85 85 81 76 77 76 70 70 76 77 75 75 73 69 66 64 63 68 74 78 78 74 71 70 69 66 65 65 65 63 62 62 61 61 61 61 62 62 61 61 59 50 38 27 24 23 21 18 17 16 15 15 17 17 17 17 17 15 11
67 69 66 68 74 67 52 46 40 30 35 45 46 52 62 74 92 89 62 57 70 77 83 84 79 82 82 71 66 67 69 76 79 69 64 72 75 70 66 66 66 68 69 71 76 82 85 84 78 72 71 70 68 66 65 65 64 62 61 60 59 59 58 58 58 57 56 54 47 36 26 23 23 22 19 18 17 16 15 16 17 18 17 17 17 15
63 62 59 54 54 48 38 38 40 39 50 62 62 67 75 80 97 101 72 56 66 71 76 81 74 67 67 62 60 65 66 70 78 70 58 62 68 64 62 64 68 74 78 82 89 93 91 87 81 75 72 71 70 67 64 63 63 61 60 58 57 56 55 55 54 53 51 49 43 34 25 22 23 22 20 18 17 17 16 16 17 18 18 17 18 17
60 56 46 37 36 39 40 47 50 46 55 71 74 74 75 70 82 104 92 68 68 72 69 70 68 63 63 62 61 62 60 65 79 76 58 54 62 62 62 67 73 81 88 94 101 102 96 90 85 78 74 71 69 66 62 61 61 60 59 57 55 54 52 51 50 48 47 45 39 31 24 22 22 22 21 19 18 17 16 16 17 18 18 18 17 18
52 41 35 35 40 47 52 57 60 56 57 70 74 70 70 66 71 99 108 83 67 67 63 63 66 64 62 62 60 59 56 58 74 78 61 55 61 62 65 74 81 90 98 103 109 109 100 93 88 80 73 69 66 64 60 59 58 57 56 54 53 52 49 47 46 44 42 40 35 28 23 21 22 22 21 20 18 18 16 16 17 18 19 19 18 18
38 35 40 46 49 54 60 63 67 66 62 64 67 65 69 70 65 76 94 84 65 61 59 59 62 61 60 60 58 54 50 50 66 76 66 60 66 67 72 84 91 97 102 106 111 111 103 95 87 78 70 64 62 60 58 57 57 55 53 51 49 48 46 43 41 38 36 34 31 26 22 21 22 22 22 20 19 18 17 16 17 18 19 19 18 18
39 45 49 51 53 57 64 66 65 64 61 60 62 60 60 62 56 56 72 78 67 60 57 54 58 59 56 54 52 49 45 44 59 75 71 67 75 79 85 95 99 101 103 105 109 110 101 91 82 72 65 59 57 56 56 56 54 51 48 45 43 42 40 37 35 33 30 29 27 24 22 21 22 22 22 21 20 19 18 16 17 18 19 20 19 18
51 52 50 53 55 54 59 64 62 59 57 54 53 51 49 53 52 48 58 68 63 55 51 51 55 55 50 47 46 45 44 43 57 76 78 76 86 93 97 103 105 103 104 104 102 99 90 80 73 65 59 55 53 52 53 52 49 46 42 39 36 35 33 31 29 27 26 25 24 23 22 22 22 22 22 22 20 20 19 17 17 17 19 20 20 19
54 54 52 55 55 50 51 56 57 54 51 47 46 45 45 49 48 44 50 57 55 50 48 49 51 47 42 43 43 48 53 52 60 77 82 82 93 98 98 101 102 99 97 92 87 83 75 69 65 60 55 52 49 48 48 45 42 39 35 31 30 28 27 26 24 23 23 22 22 22 22 21 21 21 21 22 21 21 19 17 17 17 18 20 20 19
54 57 56 54 53 50 47 49 52 52 49 45 44 43 44 47 45 41 43 50 52 50 46 45 46 45 44 48 52 61 70 67 66 79 88 89 94 98 95 94 92 87 82 77 72 68 63 60 59 56 53 49 46 44 42 37 34 32 28 24 23 23 22 22 21 21 21 21 21 21 21 21 21 21 21 21 21 21 20 18 17 17 18 18 19 19
56 57 53 50 50 50 47 47 52 54 50 46 45 44 45 47 44 40 41 44 47 48 48 49 53 56 56 59 64 73 84 84 82 90 98 99 100 100 95 89 84 79 73 66 61 56 52 52 54 54 51 47 42 39 34 29 26 25 21 19 19 19 19 19 19 19 20 20 20 21 21 21 20 20 20 21 21 22 21 19 17 17 18 18 18 18
52 51 48 47 49 50 47 47 53 57 54 50 49 49 49 47 45 43 46 49 48 49 55 63 70 71 67 68 77 89 98 102 103 104 106 105 103 100 93 85 78 73 66 59 53 48 44 46 50 51 47 42 37 32 26 21 20 19 17 16 16 16 17 17 18 19 19 19 20 21 21 21 20 20 20 20 21 22 22 21 19 18 18 18 17 17
45 47 47 47 49 49 48 49 54 58 56 52 50 51 51 49 46 47 54 64 66 64 67 75 82 85 82 84 94 104 106 107 108 108 106 104 102 97 89 82 78 73 65 58 50 44 40 41 44 43 40 36 31 25 19 16 15 15 14 14 14 15 16 16 17 18 19 19 20 20 20 20 20 19 19 20 22 22 22 22 20 18 18 18 17 16
44 47 49 49 50 52 52 51 54 60 59 53 50 53 54 54 54 56 63 72 78 77 76 80 89 96 96 96 100 105 106 105 105 104 103 102 99 93 87 83 81 78 70 59 49 40 36 37 37 35 32 28 23 18 14 12 12 13 12 12 13 13 14 15 16 17 18 18 19 20 20 19 19 19 19 21 22 22 22 22 21 19 19 19 18 17
46 48 52 53 54 56 54 53 62 76 77 64 57 58 61 63 66 70 72 75 79 82 82 86 93 100 101 101 100 102 104 103 100 99 99 97 94 90 87 85 85 79 68 55 45 38 34 33 31 28 25 21 16 13 11 10 10 11 11 11 12 12 13 14 16 17 17 18 18 19 19 18 18 18 18 21 23 23 23 23 22 20 19 19 19 17
48 52 58 59 58 60 60 58 69 89 92 76 65 65 68 72 79 83 84 83 84 87 91 95 98 100 102 102 100 98 99 97 91 89 90 90 89 88 86 85 83 74 61 49 41 36 33 29 25 22 18 15 12 10 10 9 9 10 10 10 11 11 12 13 14 16 17 17 17 18 18 17 17 17 18 21 24 24 23 23 22 21 20 20 20 18
51 53 57 59 59 63 67 66 70 87 96 85 74 75 79 83 90 95 94 91 90 94 99 101 102 103 104 101 95 90 88 86 81 78 81 86 87 87 85 84 78 67 54 45 39 34 29 24 20 17 14 11 10 9 9 9 9 9 10 10 10 10 11 12 13 15 16 16 16 16 16 16 17 16 17 22 25 26 25 24 24 22 21 21 21 19
51 50 52 58 62 63 68 69 71 82 92 86 79 82 89 92 98 102 99 96 97 100 103 104 104 104 101 94 86 81 79 79 76 75 80 85 86 85 84 79 70 59 49 41 35 29 24 19 16 13 11 10 9 9 8 9 9 9 9 10 10 10 10 11 12 14 14 15 15 15 15 15 16 16 17 22 27 27 26 26 25 24 23 23 23 21
50 49 50 57 65 66 66 68 71 81 93 95 90 92 96 97 100 101 99 98 102 104 104 105 105 101 95 88 81 75 74 77 78 77 80 84 85 83 78 69 58 49 41 34 28 23 19 15 12 10 9 9 8 8 8 9 9 9 10 10 9 9 9 10 11 12 13 14 14 14 14 14 15 15 18 22 27 28 27 27 27 25 24 24 24 23
51 51 52 58 69 72 71 73 77 84 96 103 102 101 101 98 97 98 99 101 104 105 104 102 99 95 91 86 80 75 75 78 80 80 83 87 85 77 66 56 48 41 34 28 24 20 16 13 10 9 9 9 8 8 8 9 9 9 10 10 9 9 9 10 10 11 12 13 13 13 13 14 14 15 18 22 26 27 27 28 28 26 24 24 24 23
57 58 59 64 72 78 80 83 85 85 88 95 99 99 98 96 97 100 102 101 102 102 99 95 91 87 85 83 81 79 79 80 82 84 85 84 77 67 56 48 42 36 31 26 22 17 13 11 9 9 9 8 8 8 8 9 9 9 10 9 8 9 9 9 10 11 11 12 12 12 13 13 14 15 18 22 25 25 25 26 27 27 25 24 24 24
65 66 68 71 78 86 89 90 91 90 89 92 96 96 96 98 100 101 100 97 96 96 93 88 82 77 76 77 80 81 81 82 84 84 80 75 68 60 52 44 38 33 29 24 19 14 11 9 9 9 8 8 8 8 8 8 9 9 10 9 8 9 9 9 10 10 11 11 12 12 12 13 14 16 19 23 24 23 23 25 26 27 26 25 25 24
Wind_Speed
32 34 36 38 40 42 42 42 42 44 45 47 50 52 54 58 59 60 61 62 64 67 70 72 74 72 70 70 69 69 71 73 74 74 75 76 76 77 77 78 78 78 80 82 82 84 85 85 86 87 89 92 93 91 90 89 89 89 88 86 83 80 77 72 66 60 55 50 45 43 44 46 48 50 53 57 60 62 65 68 72 74 77 81 84 88
34 35 37 39 41 42 42 42 43 45 47 49 52 54 56 59 62 63 64 65 66 68 70 72 74 73 70 70 70 71 73 75 76 76 76 77 77 77 77 77 78 78 80 81 82 83 85 85 87 89 92 94 93 92 92 91 91 90 88 87 84 81 77 73 68 62 57 52 48 44 43 44 45 47 49 53 57 60 60 62 67 70 72 76 80 84
35 36 38 40 42 44 44 44 45 46 48 51 53 56 58 60 63 66 68 68 68 68 69 70 73 74 72 71 73 73 75 77 78 78 77 77 77 76 77 77 77 77 79 81 81 83 85 86 89 92 94 95 94 93 93 92 92 91 90 88 86 82 79 75 70 64 58 53 49 45 43 42 43 44 45 48 52 56 56 57 61 65 68 70 74 79
36 38 40 41 43 45 46 47 48 48 49 52 55 58 61 63 64 67 70 72 71 69 68 68 71 76 75 74 76 76 77 79 80 79 78 77 76 76 76 76 76 77 78 80 81 82 84 87 90 93 95 96 95 94 94 94 93 93 91 89 87 84 80 76 71 66 60 54 50 47 43 42 42 42 43 45 47 50 53 54 56 59 63 65 68 73
37 39 41 42 45 47 48 49 51 52 53 55 58 60 62 65 67 69 71 73 73 71 71 69 70 76 78 77 78 79 79 80 80 80 78 76 75 75 75 75 75 76 78 79 80 82 85 88 91 94 95 96 95 94 95 95 94 94 93 91 88 85 81 76 71 67 62 57 54 49 44 41 40 41 42 42 44 46 48 50 52 54 57 61 64 67
37 39 41 43 46 48 49 50 52 55 57 58 60 62 64 67 70 72 73 74 75 74 73 72 70 74 79 80 80 81 81 81 80 79 78 75 74 73 73 74 74 75 77 78 79 82 85 88 91 93 95 95 95 95 95 96 96 95 94 92 89 86 83 78 73 69 65 61 57 53 47 42 38 38 39 40 41 42 44 46 49 50 53 57 60 62
38 40 42 44 46 48 50 52 54 56 59 61 62 64 67 69 72 74 75 76 77 76 76 76 74 75 81 82 83 83 83 82 81 79 77 74 72 71 71 72 72 73 76 77 79 82 85 89 91 93 95 95 95 95 96 96 97 96 95 93 91 88 85 80 76 72 68 64 59 55 51 46 41 37 36 38 39 40 41 43 45 47 49 53 57 60
40 41 43 45 47 49 51 53 55 57 59 62 64 66 69 72 74 76 77 77 79 79 79 79 77 78 82 84 84 85 84 83 80 77 75 72 70 69 69 70 71 73 75 77 79 82 85 89 91 93 94 95 95 95 96 97 97 97 96 94 92 90 87 83 79 74 69 65 61 57 53 49 45 40 36 35 36 37 39 40 42 43 46 49 53 56
42 43 45 47 49 51 52 54 55 58 60 63 65 68 69 72 75 76 78 79 80 81 81 81 79 80 84 85 85 85 83 81 78 74 71 68 67 66 67 68 69 72 74 76 79 82 85 88 90 93 94 94 95 96 97 97 97 97 96 95 93 91 89 85 82 77 70 66 62 59 55 51 47 43 39 35 34 35 37 38 40 41 42 45 49 52
44 45 47 49 51 53 54 55 57 59 61 63 66 69 71 73 76 77 78 79 82 83 82 81 81 81 84 85 84 82 79 77 74 70 68 66 64 64 65 67 69 72 74 76 80 83 85 88 90 92 94 94 95 96 96 96 97 97 97 96 95 93 91 89 85 80 73 66 63 60 56 53 50 46 41 38 35 34 35 36 38 40 41 42 45 49
46 48 49 51 53 55 56 57 59 62 63 65 67 69 72 74 76 77 78 79 81 83 82 82 82 83 84 83 80 78 76 74 71 68 66 64 63 63 64 66 69 71 74 77 80 83 86 88 90 92 93 94 95 95 96 96 97 97 98 97 96 95 93 91 88 83 76 69 63 60 57 54 51 48 44 40 37 35 34 34 36 38 40 41 43 45
48 49 51 53 55 56 58 60 62 64 66 67 69 71 73 75 77 77 78 78 80 82 83 82 81 83 84 81 77 75 75 73 70 68 65 63 62 62 63 66 69 71 74 77 80 83 86 88 90 92 93 94 95 95 95 96 97 98 98 98 98 97 95 94 91 87 80 73 66 61 58 54 51 48 45 42 40 38 36 34 34 35 37 40 42 43
50 51 53 55 56 58 60 63 65 67 69 70 72 73 75 76 76 76 76 77 79 82 84 83 81 82 82 78 75 75 75 72 70 68 65 63 62 62 64 66 69 71 74 77 81 84 86 89 91 92 93 94 95 95 95 96 97 98 99 99 99 98 97 96 94 90 84 77 70 64 59 56 52 48 45 43 41 39 38 36 34 33 34 36 39 42
52 53 55 56 57 60 63 65 67 69 71 73 74 76 77 77 77 77 76 76 78 82 85 85 83 80 77 75 74 75 75 73 70 67 64 62 61 62 64 66 68 71 74 78 81 84 86 89 91 91 93 94 95 95 96 97 98 99 100 100 100 99 99 97 96 93 88 81 74 67 62 58 55 50 46 43 41 39 38 38 36 34 33 34 35 38
53 54 55 57 60 63 65 67 69 71 73 76 77 78 79 79 80 80 79 79 79 82 85 85 81 76 73 73 74 75 75 72 68 65 62 61 61 62 63 65 68 71 75 78 81 84 87 89 91 91 93 94 95 96 97 98 100 101 101 101 101 101 100 99 97 95 91 85 79 72 66 61 57 53 48 44 41 39 38 37 37 36 35 33 34 35
55 56 57 60 63 65 67 70 72 74 76 78 79 79 80 80 81 82 82 82 81 81 82 80 75 70 71 73 74 74 73 69 65 62 59 58 60 61 63 65 69 72 75 78 81 84 87 89 91 92 93 95 96 98 99 101 101 102 103 102 102 102 102 101 99 98 95 89 83 77 71 65 60 56 52 47 43 40 39 38 37 36 35 34 34 34
56 59 60 62 65 67 69 72 74 77 78 79 80 81 80 80 81 81 82 82 81 78 76 75 71 67 70 73 73 72 69 64 61 58 56 57 59 61 64 67 70 73 76 79 82 85 87 89 91 94 95 96 97 98 101 102 103 103 104 104 103 103 103 103 102 100 97 93 87 80 75 69 63 58 54 50 46 42 39 38 38 37 36 35 35 34
57 60 63 64 67 69 71 74 77 78 79 80 81 82 81 81 81 81 80 79 75 70 68 71 73 70 69 71 69 67 63 59 56 54 54 56 58 61 65 69 72 75 78 80 83 85 87 89 92 94 97 98 99 100 101 103 104 104 105 105 105 105 104 103 103 101 99 96 90 83 78 72 66 60 56 53 49 44 41 39 38 38 37 36 35 35
58 61 65 67 69 71 73 75 77 79 80 81 82 83 83 81 81 79 77 74 71 68 64 68 74 73 69 68 66 61 56 53 53 53 54 56 59 63 67 71 74 76 79 82 84 85 87 89 92 95 98 100 102 102 102 103 104 105 106 106 106 106 106 105 103 102 100 97 93 86 80 75 69 63 58 55 51 47 43 40 38 37 38 37 35 34
60 63 67 69 71 72 74 75 77 79 80 81 82 83 82 80 77 76 74 73 73 72 68 67 71 71 67 63 59 55 51 50 52 54 55 58 62 65 69 72 75 77 80 82 84 86 88 90 93 96 98 101 103 104 104 104 104 105 106 107 107 107 106 105 104 103 101 98 95 89 83 77 72 66 60 56 53 50 46 42 39 37 37 38 37 35
63 66 69 72 73 74 75 75 78 79 80 81 81 81 79 77 75 73 73 74 75 74 71 67 68 66 61 57 53 51 50 50 52 56 58 61 65 67 70 72 75 78 80 83 84 87 89 92 94 97 100 102 103 105 105 105 105 105 106 107 108 108 107 105 104 103 101 99 96 92 85 79 73 69 63 58 54 52 48 44 41 38 36 36 37 37
65 67 70 72 74 75 75 76 78 79 79 79 78 78 77 76 75 73 72 73 73 72 69 65 64 59 53 51 50 50 51 52 55 59 62 64 66 68 71 73 76 79 81 84 86 89 91 94 96 99 101 103 104 105 106 106 106 106 107 108 108 108 107 106 105 103 101 99 97 93 87 81 75 71 65 60 55 52 50 47 43 40 38 36 36 37
67 68 70 72 74 76 76 76 77 78 77 76 76 76 77 77 75 73 70 69 70 69 63 57 56 53 49 49 49 51 54 55 58 61 64 66 68 70 73 75 77 80 83 86 89 91 94 96 98 100 102 104 105 106 106 107 108 108 108 108 109 108 107 106 105 104 102 99 97 94 89 83 77 73 68 62 57 53 51 49 45 42 40 38 36 36
69 70 70 71 73 76 77 76 76 75 74 75 75 76 76 75 73 70 67 65 65 62 55 49 50 51 49 50 51 54 57 59 59 63 66 68 71 73 75 77 79 82 85 89 92 94 96 98 100 101 103 105 106 107 108 108 109 110 110 109 109 109 108 106 105 104 102 100 97 94 90 85 79 75 70 65 59 54 51 49 47 44 41 39 37 36
71 71 72 72 70 71 72 71 70 71 72 73 73 73 72 72 70 66 61 56 54 54 50 46 47 52 54 55 56 57 59 61 63 65 69 72 74 76 78 80 82 85 87 91 94 96 98 100 102 103 105 106 108 109 110 110 111 111 111 111 110 109 108 107 105 103 102 100 97 94 90 86 81 77 72 68 62 56 51 49 48 45 42 39 38 37
72 73 74 75 72 69 70 69 68 69 71 71 71 70 69 68 65 60 53 48 46 48 50 47 47 52 58 60 61 62 63 65 66 68 72 75 77 80 83 85 86 88 90 92 95 97 100 101 103 105 106 108 109 110 111 112 112 113 112 112 111 110 109 107 105 103 101 99 97 93 90 86 82 78 74 70 65 59 53 49 48 46 44 41 38 37
71 73 74 77 75 72 73 74 73 72 71 71 69 67 65 61 57 53 48 45 45 46 50 52 51 52 56 60 62 64 66 69 70 72 75 78 81 83 86 88 90 91 92 94 97 99 101 103 105 107 108 110 111 112 113 113 114 114 114 113 112 110 109 107 105 103 101 99 96 93 89 86 83 79 75 72 67 61 56 51 48 47 45 43 40 37
70 71 72 74 75 74 73 74 74 72 69 66 62 59 56 53 50 49 47 47 47 48 50 55 57 56 57 60 64 66 68 71 73 74 76 79 82 85 87 89 91 93 94 96 98 101 103 105 107 109 111 112 113 114 115 115 115 115 115 114 113 111 109 107 104 102 100 98 96 92 88 84 82 80 76 73 69 64 58 53 49 47 45 44 42 39
67 68 68 70 74 74 72 72 70 67 62 57 51 48 48 49 48 48 48 48 50 53 53 55 59 60 60 62 65 69 70 72 75 76 78 80 83 85 87 90 93 95 97 98 101 103 105 107 109 111 113 114 115 116 116 116 116 116 116 115 113 111 108 106 103 101 99 97 95 91 86 82 80 79 76 74 70 66 60 55 50 48 46 45 43 41
64 65 66 68 72 73 70 67 63 57 51 48 45 44 46 49 52 52 50 49 51 54 55 56 58 61 64 64 66 69 72 75 77 77 78 81 83 86 88 91 94 97 99 101 103 106 108 110 112 113 115 116 117 117 118 118 118 117 116 115 113 110 107 104 102 99 98 96 94 90 85 81 78 77 76 73 71 67 63 57 52 48 46 45 44 43
64 64 64 63 66 66 62 57 53 47 43 43 43 45 48 51 55 56 53 51 52 55 58 60 60 62 65 66 67 69 73 76 78 79 79 81 85 88 91 93 97 100 102 104 106 108 110 112 114 115 117 118 118 119 118 118 118 117 116 114 112 109 106 103 101 98 96 94 92 89 84 79 77 76 74 73 71 68 65 60 55 50 47 45 44 43
62 62 60 56 55 53 47 44 44 42 42 43 45 48 51 52 56 60 58 55 56 59 61 63 64 64 64 66 67 70 74 77 81 83 83 84 88 91 94 96 99 102 104 106 109 111 113 114 116 117 118 119 120 120 119 118 118 117 116 113 111 108 105 102 99 97 95 93 90 87 83 78 75 74 73 72 70 68 66 62 57 53 48 45 44 44
60 57 51 43 39 38 37 38 40 41 42 46 48 49 51 52 55 62 65 62 62 64 64 65 67 67 67 68 69 72 75 79 84 88 89 89 91 94 96 99 101 103 106 108 110 113 115 116 118 119 119 120 120 120 120 118 117 116 114 112 110 107 104 101 98 96 94 91 89 85 81 77 74 73 72 71 69 67 66 63 59 55 51 47 44 43
52 45 37 31 30 33 35 38 42 42 43 46 48 50 52 54 56 62 67 67 65 65 65 66 68 70 70 72 72 74 77 80 86 92 94 95 96 97 99 102 103 105 107 109 111 114 116 118 119 120 121 121 121 120 120 118 117 115 113 110 107 105 102 99 96 94 92 89 87 83 79 75 73 71 71 70 68 66 65 63 60 56 53 49 45 43
38 31 28 29 31 34 37 39 42 44 45 47 49 52 54 57 57 59 65 69 67 65 65 66 69 72 73 75 76 77 79 82 87 93 97 98 100 101 102 104 105 107 109 111 113 115 118 120 121 121 121 121 120 120 119 118 116 113 111 108 105 102 100 97 94 92 89 87 84 81 77 74 71 70 70 69 67 65 64 62 60 57 53 51 47 44
28 28 30 32 34 36 39 42 43 46 48 50 52 54 54 56 56 55 59 66 68 67 67 68 70 74 76 77 80 81 82 83 87 94 98 100 102 103 104 106 107 109 111 112 114 117 119 121 122 122 122 121 120 119 118 117 114 111 108 105 102 99 97 94 92 89 86 84 82 79 75 72 70 69 69 68 66 64 63 62 60 57 54 52 49 45
29 32 34 36 38 38 40 43 46 49 50 51 52 53 53 54 55 53 56 63 68 69 70 72 74 77 79 81 83 85 86 87 89 93 98 100 102 104 105 107 110 111 113 115 116 118 120 121 122 122 121 120 119 118 117 115 112 108 105 102 98 96 93 91 88 86 84 81 79 76 73 70 68 68 67 67 65 64 62 61 59 57 55 52 50 47
35 37 38 40 41 42 43 45 47 49 50 51 52 53 54 56 57 57 59 65 70 72 74 76 78 80 82 85 88 90 92 93 93 95 99 101 103 105 108 110 112 113 115 116 117 119 120 121 122 122 122 120 118 116 114 112 108 105 102 98 95 92 89 87 85 83 81 78 76 74 71 69 67 66 66 65 64 63 61 60 59 57 55 53 51 47
38 40 42 43 45 46 47 48 50 52 53 53 55 57 59 61 62 62 64 68 73 77 79 80 82 85 87 90 92 95 98 99 99 99 102 104 106 108 110 112 114 115 117 118 119 119 120 120 121 122 122 119 117 114 111 108 104 101 98 94 91 88 86 83 81 79 77 75 73 71 69 67 65 65 64 64 63 62 60 59 58 56 55 53 51 48
40 42 44 46 48 50 50 51 54 57 59 59 61 63 64 66 67 68 69 71 74 79 83 85 87 89 92 94 96 97 100 104 105 105 106 108 109 111 113 115 116 118 119 120 120 120 119 120 121 122 121 119 115 111 108 104 100 98 94 91 88 85 83 80 78 76 74 73 71 69 67 66 65 64 63 62 62 60 59 59 57 55 54 53 52 49
41 44 46 48 49 51 53 54 57 61 64 65 66 68 69 69 71 73 76 78 80 82 85 88 90 92 94 97 99 100 102 106 109 109 109 110 112 113 116 118 120 122 122 122 122 121 120 119 120 120 119 116 112 108 104 100 97 94 91 88 85 82 80 78 75 74 72 70 68 67 66 65 64 63 62 61 60 59 58 58 57 55 53 53 52 50
41 44 47 49 51 54 56 58 60 63 66 67 68 70 72 73 75 77 79 83 86 87 87 89 92 95 98 100 102 104 105 106 109 111 111 113 115 116 119 121 124 125 126 126 125 123 120 119 118 117 115 113 109 104 100 96 93 92 89 86 83 80 78 75 73 71 69 68 66 65 64 64 63 63 62 60 59 58 57 57 56 55 53 52 52 51
43 46 49 52 55 57 60 62 64 65 67 69 70 72 75 78 79 81 81 83 87 90 91 93 95 98 102 103 103 105 107 109 110 112 114 115 118 120 122 125 127 129 129 129 127 123 120 118 116 114 112 109 105 101 97 93 91 89 87 84 81 78 76 73 71 69 67 65 64 63 62 62 62 62 61 60 58 56 55 55 55 54 53 52 51 51
48 50 53 56 58 60 62 65 67 69 72 73 75 77 79 82 83 85 86 87 89 93 96 97 98 100 103 105 106 108 110 111 112 114 116 117 120 122 125 127 129 130 130 129 127 124 120 117 114 111 108 105 101 98 95 92 90 88 85 82 79 76 74 71 69 67 65 63 62 61 61 61 61 61 60 59 57 55 53 54 54 53 52 51 51 51
51 53 55 58 60 64 66 68 70 72 76 78 79 79 81 83 85 88 90 92 94 96 99 100 101 102 105 107 109 110 111 113 113 114 116 119 121 124 126 128 130 131 130 129 126 123 120 116 112 108 105 103 99 96 94 91 88 86 84 81 77 74 72 69 67 65 63 62 61 60 60 60 60 60 59 58 57 54 52 51 52 52 51 51 50 50
52 53 55 58 61 64 68 70 71 73 76 78 80 81 83 85 88 90 92 94 96 98 100 102 104 105 107 110 111 111 112 113 114 115 117 120 123 125 128 129 131 131 130 128 125 122 118 113 109 106 103 101 98 95 93 90 87 84 82 79 75 72 69 67 65 64 62 61 60 59 59 59 59 59 58 57 56 54 51 50 50 51 50 50 50 49
53 55 57 60 63 65 67 70 71 74 77 78 79 81 84 86 89 92 94 95 96 98 100 103 106 108 110 112 113 113 114 115 117 118 120 122 125 127 129 130 130 130 128 126 123 119 114 110 106 104 102 100 97 94 91 88 85 82 80 76 73 70 67 65 63 62 61 59 59 58 58 57 57 57 57 56 56 54 52 50 49 49 49 49 49 49
55 57 60 63 66 68 69 70 72 74 78 81 82 83 84 85 87 90 93 96 98 100 102 105 108 111 113 115 116 116 116 118 120 121 123 125 127 128 129 130 129 127 125 123 119 115 111 108 105 102 101 98 95 92 89 86 83 80 77 74 71 68 65 63 62 61 60 59 58 57 57 56 56 55 55 54 54 54 52 50 49 48 47 47 48 48
59 61 63 65 67 70 72 72 72 73 75 79 82 83 85 87 88 91 94 97 100 102 103 105 109 112 115 117 119 120 119 120 122 124 125 127 129 130 130 129 127 125 123 120 116 113 110 107 104 102 99 97 93 90 87 84 80 77 74 72 69 66 63 61 60 60 59 58 57 56 55 55 54 53 52 51 51 52 52 50 49 48 46 46 46 47
64 66 67 67 69 71 73 74 75 74 74 77 80 83 87 90 92 95 97 100 102 104 107 109 111 112 114 116 120 122 122 123 124 125 126 128 129 130 130 128 126 124 121 118 115 111 108 106 103 101 98 95 91 87 84 81 77 74 72 71 68 65 62 60 59 58 58 57 56 55 54 53 53 52 50 49 49 50 50 50 49 48 47 45 45 45
68 69 70 70 71 73 75 77 79 79 80 82 85 88 91 94 96 99 102 104 106 109 112 114 115 115 115 116 119 122 124 125 125 127 127 128 129 130 129 127 125 122 118 115 112 109 106 104 101 98 95 92 89 85 81 78 74 72 71 70 67 64 61 59 57 57 57 56 55 54 53 52 51 50 48 47 47 48 48 49 49 49 48 46 45 44
Wind_Direction
298 300 303 307 311 316 319 320 318 316 315 316 317 318 319 319 320 320 321 323 324 324 324 323 323 324 325 325 325 327 327 327 328 328 328 328 328 328 328 329 330 332 332 333 335 336 338 340 341 343 344 345 346 346 348 349 349 350 349 349 349 348 345 342 339 334 329 322 313 302 294 287 281 277 274 271 267 263 260 259 256 253 250 248 245 243
299 302 305 308 313 317 319 318 316 314 314 315 317 318 318 319 319 320 321 323 324 324 323 324 323 324 325 326 326 328 328 328 328 328 328 328 328 328 328 329 330 331 332 334 335 336 338 340 342 344 345 346 346 347 348 349 350 350 350 350 350 349 347 344 340 336 331 325 318 310 300 293 287 281 276 273 270 267 264 260 258 255 251 249 247 245
299 302 305 310 314 317 318 316 314 313 314 316 317 318 318 319 321 322 323 323 323 323 324 324 324 324 325 327 327 328 328 328 327 327 328 328 328 328 328 328 330 331 333 334 335 336 338 341 343 344 345 345 346 347 348 349 350 350 351 351 351 350 350 347 342 338 334 329 323 316 308 300 293 287 281 276 273 270 267 262 259 257 254 250 248 246
299 302 306 311 315 317 316 314 313 313 315 316 317 318 320 321 322 323 323 323 323 324 324 325 326 325 326 328 328 328 328 327 327 326 327 327 328 327 327 328 330 331 333 334 335 336 339 341 343 344 345 345 346 347 348 349 350 350 351 352 351 351 351 349 345 340 336 333 328 322 315 308 301 294 287 281 277 273 269 265 261 258 256 253 250 247
300 304 308 312 314 315 314 313 314 316 317 318 319 320 322 322 323 323 323 323 323 324 325 326 328 327 326 328 328 328 328 327 326 326 326 327 327 327 327 328 330 331 332 333 335 337 340 342 343 344 344 345 346 348 349 349 350 350 351 352 352 352 352 352 347 342 339 337 333 327 320 313 307 302 295 287 281 276 272 268 264 260 257 255 252 249
303 306 309 311 312 312 312 314 315 317 318 319 321 322 322 323 323 323 324 324 324 325 326 326 329 328 326 327 328 327 327 326 325 325 325 326 326 326 326 328 330 331 332 333 335 338 341 342 343 343 344 345 346 348 349 349 349 350 351 352 352 352 353 353 350 346 343 341 337 332 325 318 312 307 301 294 287 280 275 270 266 263 259 256 254 251
304 306 307 308 308 310 312 313 315 317 319 320 321 322 322 323 324 324 324 325 324 325 326 327 329 329 327 327 327 327 326 325 325 325 325 325 325 326 327 328 330 331 332 333 336 339 341 342 342 342 344 345 347 348 349 350 350 350 351 352 353 353 354 354 354 351 347 342 339 336 331 324 317 311 306 301 294 286 279 274 269 266 262 258 255 253
303 304 305 306 307 309 311 313 315 318 320 320 320 322 323 324 324 325 325 325 325 326 327 327 329 330 328 327 327 327 327 326 325 325 325 325 326 327 327 329 330 331 332 334 337 340 341 341 341 342 344 346 347 348 349 350 350 350 351 353 353 354 354 355 356 355 350 345 341 339 336 330 323 317 311 305 300 294 287 279 273 269 265 261 257 254
302 303 304 305 307 309 311 314 316 318 319 320 320 321 322 323 324 325 325 325 326 326 327 327 329 330 328 327 328 327 327 327 326 326 326 326 327 328 328 330 331 331 333 335 338 340 341 340 340 342 344 346 348 349 349 350 350 351 352 353 354 354 355 356 357 357 354 349 344 341 339 335 329 322 316 311 306 301 294 287 280 274 268 264 261 257
302 302 304 305 307 310 312 314 316 317 318 319 320 320 321 322 323 324 325 326 326 326 326 327 328 329 328 327 328 328 328 329 328 329 329 329 330 329 330 331 331 332 334 337 339 340 340 339 340 342 344 346 348 349 349 350 351 351 352 353 354 355 355 356 357 357 356 353 348 344 341 338 333 327 321 317 312 307 300 294 287 281 274 268 264 260
303 304 306 307 309 312 313 315 316 317 318 318 319 319 320 321 322 324 325 326 326 325 325 326 328 328 327 327 328 329 330 331 331 331 332 332 331 331 331 332 332 334 336 337 339 339 339 339 340 342 345 347 348 349 349 350 351 352 352 353 354 355 355 356 357 357 357 356 352 347 343 341 337 331 326 321 318 312 306 299 292 286 280 274 268 263
306 307 308 310 311 313 315 316 316 317 317 318 318 319 319 320 322 324 325 325 325 324 324 326 328 328 326 327 329 329 331 333 333 333 333 332 332 332 333 333 334 335 337 338 338 338 338 338 340 343 346 347 347 348 349 350 352 352 353 353 354 355 355 356 356 357 357 357 355 351 347 343 340 336 330 325 322 317 312 305 298 291 284 278 272 267
309 309 310 312 313 314 315 316 316 317 317 317 318 318 319 320 321 322 323 324 325 324 324 325 327 327 326 327 329 329 331 333 333 333 333 333 333 333 334 334 335 336 337 338 338 337 337 338 340 344 346 347 347 348 350 351 352 353 353 354 354 354 355 356 356 356 357 357 356 354 351 346 343 339 335 329 324 321 316 311 304 296 289 282 276 271
310 311 312 313 313 314 314 315 316 316 316 316 317 318 319 320 321 322 323 324 325 325 324 325 326 327 326 327 328 329 331 332 332 332 333 333 333 333 334 335 336 337 338 338 337 336 337 339 341 344 346 347 347 348 350 351 352 353 353 354 354 354 355 355 356 356 356 356 356 355 353 350 345 342 339 334 328 323 319 315 309 303 295 287 280 273
310 311 312 313 313 314 315 315 315 316 316 316 317 319 320 321 322 323 324 325 326 326 324 324 326 327 326 326 328 328 330 331 331 331 333 333 332 333 335 336 336 337 338 337 336 336 338 340 342 345 346 347 348 349 350 351 352 352 353 353 354 354 354 355 355 355 355 356 356 356 355 352 348 344 341 339 333 326 321 317 313 308 302 294 286 278
311 312 313 314 314 315 315 315 315 316 316 317 318 320 321 322 323 324 325 326 326 326 324 324 325 327 326 325 327 328 330 330 330 331 332 332 333 334 336 336 337 338 337 336 336 337 339 341 343 345 346 347 348 349 350 351 352 352 352 353 353 354 354 354 355 355 355 355 356 356 355 354 351 346 343 341 338 332 326 320 316 312 308 301 294 286
312 313 314 315 315 315 315 315 315 316 317 318 320 321 322 323 323 324 325 325 326 326 326 324 324 326 325 324 326 328 329 330 329 331 333 333 334 336 336 337 338 337 336 336 337 338 340 342 344 345 346 347 348 349 350 350 351 351 352 353 353 353 354 354 354 355 355 354 355 355 355 354 353 349 345 342 340 337 331 325 320 315 311 307 301 293
313 313 314 314 315 315 315 316 316 317 318 319 320 321 322 324 325 325 326 326 326 327 328 325 323 325 325 325 327 329 329 330 330 332 334 335 336 337 337 338 338 337 336 336 338 339 341 343 345 345 346 347 348 349 350 350 350 351 351 352 353 353 353 353 353 354 354 354 354 354 355 354 353 351 347 344 341 339 336 330 324 319 315 311 306 300
313 313 313 314 314 314 315 316 317 318 319 320 321 322 323 325 326 326 327 327 326 327 328 326 323 325 327 328 329 331 332 334 334 335 337 337 339 339 339 339 338 337 336 337 338 340 342 344 345 345 346 347 347 348 349 350 350 350 351 351 352 352 352 353 353 353 353 353 353 353 353 354 353 352 350 346 343 341 339 334 329 323 318 314 310 306
312 312 313 313 314 314 316 317 318 319 320 321 322 323 324 326 327 327 327 327 327 326 328 328 325 326 329 331 333 335 337 339 338 338 339 340 340 340 339 339 337 336 337 338 339 341 343 344 345 346 346 346 347 347 348 349 350 350 350 351 351 352 352 352 352 352 352 353 352 352 352 353 353 352 351 348 345 342 340 337 333 328 322 317 313 310
311 312 313 313 314 315 317 319 319 320 321 322 323 324 325 326 327 327 327 327 326 326 328 330 328 329 334 336 339 341 342 344 342 340 341 341 341 339 338 337 336 336 337 339 340 342 343 344 345 345 346 346 346 347 347 348 349 349 350 350 350 351 351 351 351 351 351 352 352 351 350 351 352 352 351 350 347 344 341 339 336 331 326 321 316 313
310 311 313 314 316 317 318 320 320 321 322 323 324 324 325 326 326 327 327 327 326 327 329 333 332 334 340 343 344 344 344 346 345 342 342 341 339 338 337 336 337 338 339 340 341 342 343 344 345 345 345 345 346 346 346 347 348 349 349 349 350 350 350 350 350 350 350 351 351 350 349 350 351 351 351 350 349 346 342 341 338 334 330 326 320 316
311 312 314 316 318 318 319 320 321 322 323 324 324 325 325 325 326 326 327 328 328 328 333 339 338 339 345 346 346 347 346 346 345 343 341 339 337 337 336 337 338 339 340 341 341 342 343 344 344 344 345 345 345 346 346 346 347 348 348 349 349 349 349 349 349 349 349 350 350 349 348 348 349 350 350 350 349 347 344 341 340 338 334 329 324 319
312 314 316 317 318 319 320 321 323 323 324 324 324 324 324 325 326 327 329 332 332 331 339 347 344 342 346 348 348 348 345 344 344 342 339 338 337 337 337 338 339 340 341 341 341 342 342 343 343 344 344 344 344 345 345 346 346 347 347 348 348 348 348 348 349 348 348 348 349 349 347 347 348 349 349 349 349 348 346 343 341 339 337 333 328 323
315 316 317 317 318 319 319 321 322 322 323 323 324 325 325 326 327 329 335 339 338 336 343 352 351 345 346 348 347 346 343 342 342 341 339 337 337 337 338 339 340 341 342 341 341 341 342 342 343 343 343 344 344 344 345 345 345 346 346 347 347 347 347 347 347 347 347 347 347 348 347 346 346 348 348 349 348 348 347 345 343 341 339 336 332 327
317 318 318 318 320 322 321 322 323 324 325 325 326 326 327 328 329 334 344 350 346 344 346 352 355 350 346 346 345 343 342 341 340 340 339 338 338 339 339 340 340 341 341 341 341 341 341 341 342 342 342 343 343 343 344 344 344 345 345 345 346 346 346 346 346 346 346 346 346 347 346 345 345 346 347 347 347 347 347 346 344 342 340 338 335 330
318 319 319 320 321 324 324 325 326 327 328 328 328 329 330 333 335 340 351 355 351 350 349 348 350 350 345 344 342 341 342 340 339 340 339 339 339 340 340 340 339 340 340 340 340 340 340 341 341 341 342 342 342 343 343 343 343 343 344 344 344 344 345 345 345 345 345 345 345 346 346 344 343 344 346 346 346 347 347 347 345 344 342 340 337 333
319 320 321 321 322 324 326 326 327 328 329 330 333 335 336 339 342 345 355 358 351 350 349 345 345 345 344 342 341 341 340 339 338 339 340 339 339 339 339 339 338 338 339 339 340 340 340 340 340 340 341 341 341 342 342 342 342 342 342 343 343 343 343 343 343 344 344 344 344 344 345 344 343 343 344 345 345 346 346 347 346 345 343 341 339 336
320 321 323 322 322 324 326 327 327 329 332 336 341 344 344 344 345 347 353 355 349 346 346 344 342 342 342 342 341 340 339 338 337 339 340 339 338 338 338 337 337 337 338 339 339 339 339 339 339 340 340 340 340 341 341 341 341 341 341 341 341 341 342 342 342 342 342 342 342 343 344 343 342 342 343 344 344 344 345 346 347 346 344 343 341 338
322 322 324 324 323 324 326 327 328 334 341 345 348 350 349 347 345 344 347 349 346 343 342 342 341 341 341 342 341 339 338 337 337 338 339 338 337 337 337 337 337 337 337 338 338 338 338 338 338 339 339 339 339 339 340 339 339 339 339 339 340 340 340 341 341 341 341 341 341 341 342 342 342 341 342 343 343 343 344 345 346 346 345 344 342 340
323 324 326 326 324 324 327 330 333 342 350 351 349 350 350 348 344 340 341 343 342 341 341 340 341 340 340 340 340 338 338 337 336 336 338 338 337 337 337 337 337 337 337 337 337 337 337 337 337 337 338 338 338 338 338 338 338 338 338 338 338 339 339 339 340 340 340 340 340 340 341 341 341 340 341 342 342 342 342 343 345 346 346 345 344 341
324 326 327 329 327 328 333 338 340 347 352 350 348 348 347 346 342 337 337 341 341 340 341 340 339 339 339 339 339 339 338 337 335 335 337 337 337 337 337 337 337 336 336 336 336 335 336 336 336 336 336 336 336 336 337 337 337 337 337 337 337 337 338 338 338 338 339 339 338 339 340 340 340 340 340 341 342 341 341 342 343 344 345 346 345 343
326 327 330 335 337 337 342 344 342 346 349 347 346 345 343 342 342 339 337 340 342 341 341 340 338 338 339 339 339 338 338 338 336 334 336 337 337 337 337 337 336 336 335 335 335 334 334 334 335 335 335 335 335 335 335 335 335 335 335 335 336 336 336 337 337 337 337 337 337 337 338 339 339 339 339 340 341 341 340 341 342 343 344 345 346 345
327 331 339 348 349 345 344 343 341 342 345 344 342 342 341 341 344 342 337 338 340 340 340 340 338 338 338 337 337 337 338 338 337 335 335 337 337 337 337 336 335 334 334 334 334 333 333 333 333 333 333 334 334 334 334 334 334 334 334 334 335 335 335 336 336 336 336 336 336 336 337 338 338 338 338 339 340 340 339 340 341 342 343 344 345 346
333 341 349 350 347 344 342 342 340 339 340 341 340 341 342 342 344 343 338 335 337 338 338 339 338 336 336 336 336 337 338 339 338 335 334 336 336 336 336 335 334 333 333 333 333 332 331 331 331 331 332 332 333 333 333 333 333 333 333 333 333 334 334 334 334 335 335 335 335 335 336 336 337 337 337 338 339 339 339 339 340 341 342 343 344 345
343 347 348 345 344 344 342 341 340 338 339 340 341 342 343 342 342 343 339 335 336 337 337 338 338 336 336 336 336 337 337 339 338 335 334 335 335 334 334 333 333 333 333 332 332 331 330 330 330 330 331 331 332 332 332 332 332 332 332 332 333 333 333 333 333 333 334 334 334 334 334 335 336 336 336 337 338 338 338 338 339 339 341 342 342 344
345 343 344 344 342 343 342 340 339 338 339 341 341 341 342 341 341 342 341 337 336 337 337 338 338 337 336 336 336 337 337 338 338 335 333 334 334 333 333 333 332 332 332 331 330 329 329 329 329 329 330 331 331 331 331 331 331 331 331 331 332 332 332 332 332 332 332 333 333 333 333 334 334 335 335 336 336 337 337 337 338 338 340 341 341 342
342 341 342 342 341 341 341 340 338 338 338 340 340 340 340 340 339 341 342 339 337 337 338 339 338 337 336 336 337 338 337 338 338 336 333 334 334 333 333 333 332 331 331 330 329 329 329 329 329 329 329 330 330 330 330 330 330 330 330 330 331 332 332 331 331 331 331 331 331 331 332 332 333 334 334 335 335 336 336 336 337 337 338 339 340 341
341 341 341 340 340 340 341 341 340 339 339 340 340 339 340 340 339 340 341 340 339 338 338 339 338 337 337 338 339 339 337 336 337 336 334 335 335 334 333 332 332 331 330 330 329 329 329 329 329 329 329 329 329 329 329 329 329 329 329 329 330 331 331 331 330 330 330 330 330 330 330 331 332 333 333 334 334 335 335 335 336 336 337 338 338 339
340 340 339 340 341 341 342 343 341 339 339 340 340 340 340 340 339 340 340 340 339 339 339 339 339 338 338 338 338 338 337 336 336 336 335 335 334 333 333 332 331 331 330 330 330 330 330 330 329 329 328 328 328 328 328 328 328 328 328 329 330 330 330 330 329 329 329 329 329 329 329 330 331 332 333 333 333 334 333 333 334 335 336 337 337 338
340 339 340 342 342 341 342 343 342 339 339 340 341 341 340 340 340 341 341 340 340 341 341 340 339 338 338 338 338 337 337 335 335 335 334 334 333 333 332 332 331 331 331 331 330 330 331 331 329 328 327 327 327 327 327 327 327 327 328 328 329 330 329 329 329 329 328 328 328 328 328 328 329 330 331 332 332 333 332 332 333 334 335 336 336 336
341 341 341 342 342 341 342 343 342 340 339 340 341 341 340 340 341 342 342 341 339 340 341 340 338 337 337 338 337 336 336 335 334 334 333 333 332 332 332 332 332 331 331 331 331 331 331 330 329 328 327 326 326 326 326 327 327 327 327 328 329 329 328 328 328 328 327 327 327 327 327 328 328 329 330 331 331 332 331 331 331 332 334 334 335 335
342 342 341 341 342 341 341 342 341 339 339 340 341 341 340 340 341 342 342 340 339 338 339 339 338 337 336 336 336 335 334 334 334 333 333 332 332 332 332 332 332 331 331 330 330 330 330 330 329 328 327 326 326 326 326 326 327 326 326 327 327 327 327 326 326 326 326 325 326 326 326 326 327 328 328 329 330 331 331 330 330 331 332 333 334 334
343 343 342 341 341 340 340 342 341 339 338 340 341 341 340 339 339 340 339 339 339 338 338 338 337 336 335 335 335 335 334 333 333 333 332 332 332 332 332 332 331 330 330 329 329 330 330 329 328 327 327 326 326 326 326 326 326 325 325 325 326 326 325 325 325 325 324 324 325 325 325 326 326 326 327 328 328 329 330 329 329 329 331 332 332 333
343 342 340 339 339 339 340 342 342 339 337 339 340 340 339 338 338 337 338 338 339 338 337 336 335 334 334 334 334 334 333 332 332 332 332 331 332 331 331 331 330 330 329 329 329 329 329 328 328 327 326 326 325 325 325 325 325 325 324 324 325 324 324 324 324 323 323 323 323 324 324 325 325 325 326 326 327 328 328 328 327 328 329 330 331 331
340 339 338 338 339 339 340 341 341 338 336 336 338 338 337 337 337 336 337 337 337 336 335 334 333 333 333 333 333 333 332 331 331 331 332 332 331 331 331 331 330 329 329 329 329 329 328 328 327 327 326 325 325 325 325 325 324 324 323 323 323 323 322 323 322 322 322 322 322 322 323 324 324 324 325 325 325 326 327 327 327 327 328 329 329 330
337 338 339 338 338 339 339 339 339 337 334 334 336 336 336 337 336 335 335 335 335 334 333 333 332 332 332 332 332 332 332 331 331 332 332 332 331 331 331 330 329 329 328 328 328 328 327 327 327 326 325 325 325 325 325 324 324 323 323 322 322 321 321 322 321 320 320 321 321 321 322 322 323 323 324 324 324 324 325 326 326 326 327 327 328 329
337 339 340 339 338 338 338 338 338 337 334 333 335 335 335 335 335 333 332 333 333 333 333 332 331 331 331 331 331 332 332 332 332 332 332 331 331 330 330 329 329 328 328 328 328 327 327 327 326 326 325 324 325 325 325 324 324 323 322 321 320 320 321 321 320 319 319 319 319 320 320 321 322 322 323 323 323 323 324 324 324 325 325 326 326 327
339 339 340 340 338 337 337 337 336 336 334 332 332 333 333 333 333 333 332 332 332 332 331 331 331 331 331 331 331 331 332 332 331 331 331 331 330 329 329 329 328 328 328 328 327 327 327 326 326 325 325 325 325 325 325 324 324 323 321 319 319 319 320 319 319 318 317 318 318 318 319 320 320 321 322 322 322 322 322 323 323 323 324 325 326 326
339 339 339 339 338 336 335 334 333 333 333 331 331 331 332 332 333 332 332 332 332 331 331 331 332 332 331 331 331 331 331 331 331 331 331 330 329 329 328 328 328 328 328 328 327 326 326 326 325 325 325 325 325 325 325 324 323 322 320 318 318 319 319 319 318 317 316 316 317 318 318 319 319 320 321 321 321 321 321 321 321 321 322 324 324 325
338 337 337 337 336 335 333 333 332 332 333 333 332 332 332 332 332 332 332 332 332 332 331 331 331 331 331 331 331 330 330 330 330 330 330 329 329 328 328 327 327 327 328 327 326 326 326 325 325 325 325 325 325 325 324 324 323 321 319 318 319 320 319 318 317 316 315 316 316 317 317 318 318 319 319 320 320 320 320 320 320 320 321 322 323 324